This is the latest recevied weather packets stored in our database for station/object KI6PPU. If no packets are shown the sender has not sent any weather packets the latest 10 day(s).
| Time | Temp. | Humidity | Pressure | Rain* | Wind** | Luminosity | Snow |
|---|---|---|---|---|---|---|---|
| 1778160894 | 9.44° C | 98% | 1020.9 hPa | 0 mm | - | 18 W/m² | - |
| 1778160593 | 10° C | 98% | 1021.2 hPa | 0 mm | - | 16 W/m² | - |
| 1778160289 | 9.44° C | 98% | 1021.2 hPa | 0 mm | - | 12 W/m² | - |
| 1778159985 | 9.44° C | 98% | 1021.1 hPa | 0 mm | - | 9 W/m² | - |
| 1778159683 | 8.89° C | 98% | 1021 hPa | 0 mm | - | 6 W/m² | - |
| 1778159380 | 8.89° C | 98% | 1021 hPa | 0 mm | - | 4 W/m² | - |
| 1778159077 | 8.89° C | 98% | 1020.9 hPa | 0 mm | - | 1 W/m² | - |
| 1778158775 | 8.89° C | 98% | 1021 hPa | 0 mm | - | 0 W/m² | - |
| 1778158473 | 8.89° C | 98% | 1021.1 hPa | 0 mm | - | 0 W/m² | - |
| 1778158170 | 9.44° C | 98% | 1021.1 hPa | 0 mm | - | 0 W/m² | - |
| 1778157866 | 10° C | 98% | 1020.9 hPa | 0 mm | - | 0 W/m² | - |
| 1778157565 | 8.89° C | 98% | 1020.9 hPa | 0 mm | - | 0 W/m² | - |
| 1778157262 | 9.44° C | 98% | 1021 hPa | 0 mm | - | 0 W/m² | - |
| 1778156958 | 10° C | 98% | 1021 hPa | 0 mm | - | 0 W/m² | - |
| 1778156653 | 9.44° C | 98% | 1020.9 hPa | 0 mm | - | 0 W/m² | - |
| 1778156350 | 9.44° C | 98% | 1020.7 hPa | 0 mm | - | 0 W/m² | - |
| 1778156045 | 8.89° C | 98% | 1020.9 hPa | 0 mm | - | 0 W/m² | - |
| 1778155742 | 8.89° C | 98% | 1020.8 hPa | 0 mm | - | 0 W/m² | - |
| 1778155438 | 9.44° C | 98% | 1021 hPa | 0 mm | - | 0 W/m² | - |
| 1778155135 | 9.44° C | 98% | 1021.1 hPa | 0 mm | - | 0 W/m² | - |
| 1778154831 | 10° C | 98% | 1021 hPa | 0 mm | - | 0 W/m² | - |
| 1778154526 | 10° C | 98% | 1021 hPa | 0 mm | - | 0 W/m² | - |
| 1778154224 | 9.44° C | 98% | 1020.9 hPa | 0 mm | - | 0 W/m² | - |
| 1778153921 | 9.44° C | 98% | 1021.1 hPa | 0 mm | - | 0 W/m² | - |
| 1778153618 | 9.44° C | 98% | 1021 hPa | 0 mm | - | 0 W/m² | - |
* Rain latest hour (hover to see other rain measurements)
** Current wind speed in m/s (hover to see current wind gust speed)